Change the Weather History Date:

Tuesday, April 1, 2014

  Actual Average Record
Temperature  
Mean Temperature 18 °F -  
Max Temperature 37 °F 34 °F 52 °F (1958)
Min Temperature -2 °F 11 °F -22 °F (1986)
Degree Days  
Heating Degree Days 48    
Moisture  
Dew Point 5 °F    
Average Humidity 57    
Maximum Humidity 83    
Minimum Humidity 21    
Precipitation  
Precipitation 0.00 in - - ()
Sea Level Pressure  
Sea Level Pressure 30.00 in    
Wind  
Wind Speed 1 mph (NW)    
Max Wind Speed 7 mph    
Max Gust Speed -    
Visibility 10 miles    
Events      
Averages and records for this station are not official NWS values.
T = Trace of Precipitation, MM = Missing Value Source: NWS Daily Summary

Daily Weather History Graph

Daily Weather History Graph

Search for Another Location

Airport or City:

Trip Planner

Search our weather history database for the weather conditions in past years. The results will help you decide how hot, cold, wet, or windy it might be!

Date:

Astronomy

Apr. 01, 2014 Rise Set
Actual Time 7:02 AM AKDT 8:30 PM AKDT
Civil Twilight 6:16 AM AKDT 9:16 PM AKDT
Nautical Twilight 5:18 AM AKDT 10:15 PM AKDT
Astronomical Twilight 4:06 AM AKDT 11:28 PM AKDT
Moon 7:35 AM AKDT (4/1) 11:50 PM AKDT (4/1)
Length of Visible Light 14h 59m
Length of Day
13h 27m
Waxing Crescent, 5% of the Moon is Illuminated
Apr 1
Waxing Crescent
Apr 7
First Quarter
Apr 14
Full
Apr 21
Last Quarter
Apr 28
New

Hourly Weather History & Observations

Time (AKDT) Temp. Windchill Dew Point Humidity Pressure Visibility Wind Dir Wind Speed Gust Speed Precip Events Conditions
12:53 AM 15.1 °F - 5.0 °F 64% 30.04 in 10.0 mi Calm Calm - N/A   Clear
1:53 AM 15.1 °F 6.4 °F 3.9 °F 61% 30.03 in 10.0 mi West 5.8 mph - N/A   Clear
2:53 AM 12.9 °F 2.6 °F 3.9 °F 67% 30.02 in 10.0 mi West 6.9 mph - N/A   Clear
3:53 AM 3.9 °F - -0.9 °F 80% 30.04 in 10.0 mi Calm Calm - N/A   Clear
4:53 AM 1.9 °F - -2.0 °F 83% 30.04 in 10.0 mi Calm Calm - N/A   Clear
5:53 AM -0.9 °F -8.9 °F -5.1 °F 83% 30.03 in 10.0 mi NW 3.5 mph - N/A   Clear
6:53 AM -2.0 °F -12.2 °F -6.0 °F 83% 30.04 in 10.0 mi NW 4.6 mph - N/A   Clear
7:53 AM -0.0 °F - -6.0 °F 76% 30.04 in 10.0 mi Calm Calm - N/A   Clear
8:53 AM 10.0 °F - 3.0 °F 73% 30.04 in 10.0 mi Calm Calm - N/A   Clear
9:53 AM 14.0 °F - 3.9 °F 64% 30.03 in 10.0 mi Calm Calm - N/A   Clear
10:53 AM 18.0 °F - 5.0 °F 57% 30.03 in 10.0 mi Calm Calm - N/A   Clear
11:53 AM 21.0 °F - 7.0 °F 55% 30.02 in 10.0 mi Calm Calm - N/A   Clear
12:53 PM 24.1 °F 19.7 °F 7.0 °F 48% 30.01 in 10.0 mi ESE 3.5 mph - N/A   Clear
1:53 PM 28.9 °F - 8.1 °F 41% 30.00 in 10.0 mi Calm Calm - N/A   Clear
2:53 PM 33.1 °F - 7.0 °F 34% 29.98 in 10.0 mi Calm Calm - N/A   Clear
3:53 PM 34.0 °F - 9.0 °F 35% 29.97 in 10.0 mi Calm Calm - N/A   Clear
4:53 PM 35.1 °F 31.0 °F 8.1 °F 33% 29.96 in 10.0 mi North 4.6 mph - N/A   Clear
5:53 PM 34.0 °F 31.0 °F 9.0 °F 35% 29.96 in 10.0 mi ESE 3.5 mph - N/A   Clear
6:53 PM 33.1 °F - 10.0 °F 38% 29.96 in 10.0 mi Calm Calm - N/A   Clear
7:53 PM 32.0 °F - 9.0 °F 38% 29.96 in 10.0 mi Calm Calm - N/A   Clear
8:53 PM 24.1 °F - 9.0 °F 53% 29.96 in 10.0 mi Calm Calm - N/A   Clear
9:53 PM 19.9 °F - 8.1 °F 60% 29.96 in 10.0 mi Calm Calm - N/A   Clear
10:53 PM 16.0 °F - 6.1 °F 65% 29.97 in 10.0 mi Calm Calm - N/A   Clear
11:53 PM 14.0 °F - 6.1 °F 71% 29.97 in 10.0 mi Calm Calm - N/A   Clear